Weather History for K3MW - March, 2014

Change the Weather History Date:

Monday, March 24, 2014

  Actual Average Record
Temperature  
Mean Temperature 26 °F -  
Max Temperature 32 °F - - ()
Min Temperature 19 °F - - ()
Degree Days  
Heating Degree Days 40    
Moisture  
Dew Point 3 °F    
Average Humidity 38    
Maximum Humidity 54    
Minimum Humidity 21    
Precipitation  
Precipitation 0.00 in - - ()
Sea Level Pressure  
Sea Level Pressure 30.17 in    
Wind  
Wind Speed 21 mph (West)    
Max Wind Speed 30 mph    
Max Gust Speed 46 mph    
Visibility 10 miles    
Events      
T = Trace of Precipitation, MM = Missing Value Source: NWS Daily Summary

Daily Weather History Graph

Daily Weather History Graph

Search for Another Location

Airport or City:

Trip Planner

Search our weather history database for the weather conditions in past years. The results will help you decide how hot, cold, wet, or windy it might be!

Date:

Astronomy

Mar. 24, 2014 Rise Set
Actual Time 7:03 AM MDT 7:23 PM MDT
Civil Twilight 6:36 AM MDT 7:50 PM MDT
Nautical Twilight 6:04 AM MDT 8:22 PM MDT
Astronomical Twilight 5:31 AM MDT 8:55 PM MDT
Moon 2:37 AM MDT (3/24) 12:50 PM MDT (3/24)
Length of Visible Light 13h 14m
Length of Day
12h 19m
Last Quarter, 42% of the Moon is Illuminated
Mar 24
Last Quarter
Mar 30
New
Apr 7
First Quarter
Apr 15
Full
Apr 22
Last Quarter

Hourly Weather History & Observations

Time (MDT) Temp. Windchill Dew Point Humidity Pressure Visibility Wind Dir Wind Speed Gust Speed Precip Events Conditions
12:15 AM 23.0 °F 8.7 °F -0.4 °F 36% 30.14 in 10.0 mi WSW 18.4 mph 25.3 mph N/A   Overcast
12:35 AM 23.0 °F 8.7 °F -2.2 °F 33% 30.13 in 10.0 mi WSW 18.4 mph 27.6 mph N/A   Mostly Cloudy
12:54 AM 23.0 °F 8.3 °F -0.4 °F 36% 30.14 in 10.0 mi WSW 19.6 mph 25.3 mph N/A   Overcast
1:15 AM 23.0 °F 8.7 °F -2.2 °F 33% 30.13 in 10.0 mi West 18.4 mph 25.3 mph N/A   Overcast
1:34 AM 23.0 °F 9.2 °F -4.0 °F 31% 30.13 in 10.0 mi WSW 17.3 mph 20.7 mph N/A   Mostly Cloudy
1:55 AM 23.0 °F 9.2 °F -4.0 °F 31% 30.13 in 10.0 mi WSW 17.3 mph 23.0 mph N/A   Overcast
2:15 AM 23.0 °F 8.7 °F -4.0 °F 31% 30.12 in 10.0 mi WSW 18.4 mph 21.9 mph N/A   Overcast
2:35 AM 23.0 °F 8.7 °F -2.2 °F 33% 30.12 in 10.0 mi WSW 18.4 mph 23.0 mph N/A   Overcast
2:55 AM 23.0 °F 8.7 °F -4.0 °F 31% 30.11 in 10.0 mi WSW 18.4 mph 23.0 mph N/A   Overcast
3:15 AM 23.0 °F 9.6 °F -2.2 °F 33% 30.11 in 10.0 mi WSW 16.1 mph 25.3 mph N/A   Overcast
3:35 AM 23.0 °F 8.7 °F -2.2 °F 33% 30.10 in 10.0 mi West 18.4 mph 27.6 mph N/A   Overcast
3:55 AM 23.0 °F 8.7 °F -2.2 °F 33% 30.10 in 10.0 mi West 18.4 mph 39.1 mph N/A   Overcast
4:15 AM 23.0 °F 5.4 °F -0.4 °F 36% 30.08 in 10.0 mi West 29.9 mph 36.8 mph N/A   Overcast
4:35 AM 23.0 °F 6.9 °F -0.4 °F 36% 30.10 in 10.0 mi West 24.2 mph 33.4 mph N/A   Overcast
4:55 AM 23.0 °F 7.2 °F -0.4 °F 36% 30.09 in 10.0 mi WNW 23.0 mph 31.1 mph N/A   Overcast
5:14 AM 23.0 °F 6.3 °F -0.4 °F 36% 30.10 in 10.0 mi West 26.5 mph 32.2 mph N/A   Overcast
5:34 AM 21.2 °F 3.9 °F 1.4 °F 42% 30.09 in 10.0 mi West 26.5 mph 35.7 mph N/A   Overcast
5:55 AM 21.2 °F 4.2 °F 1.4 °F 42% 30.10 in 10.0 mi WNW 25.3 mph 35.7 mph N/A   Mostly Cloudy
6:15 AM 21.2 °F 4.5 °F 1.4 °F 42% 30.11 in 10.0 mi West 24.2 mph 39.1 mph N/A   Mostly Cloudy
6:35 AM 21.2 °F 3.0 °F 1.4 °F 42% 30.10 in 10.0 mi West 29.9 mph 46.0 mph N/A   Scattered Clouds
6:55 AM 21.2 °F 4.2 °F 1.4 °F 42% 30.12 in 10.0 mi WNW 25.3 mph 39.1 mph N/A   Scattered Clouds
7:15 AM 21.2 °F 3.5 °F 1.4 °F 42% 30.11 in 10.0 mi West 27.6 mph 36.8 mph N/A   Clear
7:35 AM 19.4 °F 1.1 °F 3.2 °F 49% 30.12 in 10.0 mi WNW 27.6 mph 39.1 mph N/A   Clear
7:55 AM 21.2 °F 3.5 °F 3.2 °F 46% 30.13 in 10.0 mi WNW 27.6 mph 41.4 mph N/A   Clear
8:14 AM 19.4 °F 1.8 °F 3.2 °F 49% 30.14 in 10.0 mi WNW 25.3 mph 35.7 mph N/A   Clear
8:35 AM 19.4 °F 1.1 °F 3.2 °F 49% 30.14 in 10.0 mi West 27.6 mph 34.5 mph N/A   Clear
8:55 AM 19.4 °F 1.8 °F 3.2 °F 49% 30.15 in 10.0 mi WNW 25.3 mph 32.2 mph N/A   Clear
9:15 AM 19.4 °F 2.8 °F 5.0 °F 54% 30.16 in 10.0 mi WNW 21.9 mph 28.8 mph N/A   Clear
9:35 AM 21.2 °F 6.0 °F 5.0 °F 50% 30.17 in 10.0 mi West 19.6 mph 26.5 mph N/A   Clear
9:55 AM 21.2 °F 7.8 °F 5.0 °F 50% 30.19 in 10.0 mi West 15.0 mph 24.2 mph N/A   Clear
10:15 AM 21.2 °F 8.3 °F 5.0 °F 50% 30.20 in 10.0 mi West 13.8 mph 20.7 mph N/A   Clear
10:35 AM 23.0 °F 10.6 °F 5.0 °F 46% 30.20 in 10.0 mi West 13.8 mph 19.6 mph N/A   Clear
10:55 AM 23.0 °F 10.6 °F 5.0 °F 46% 30.20 in 10.0 mi West 13.8 mph 21.9 mph N/A   Clear
11:15 AM 23.0 °F 10.6 °F 6.8 °F 50% 30.21 in 10.0 mi West 13.8 mph 21.9 mph N/A   Clear
11:35 AM 23.0 °F 9.6 °F 6.8 °F 50% 30.20 in 10.0 mi West 16.1 mph 23.0 mph N/A   Clear
11:55 AM 23.0 °F 8.7 °F 6.8 °F 50% 30.21 in 10.0 mi West 18.4 mph 27.6 mph N/A   Scattered Clouds
12:15 PM 24.8 °F 11.1 °F 6.8 °F 46% 30.21 in 10.0 mi WNW 18.4 mph 28.8 mph N/A   Scattered Clouds
12:35 PM 26.6 °F 12.7 °F 6.8 °F 43% 30.21 in 10.0 mi West 20.7 mph 28.8 mph N/A   Scattered Clouds
12:55 PM 26.6 °F 12.7 °F 6.8 °F 43% 30.21 in 10.0 mi West 20.7 mph 33.4 mph N/A   Clear
1:15 PM 26.6 °F 11.7 °F 6.8 °F 43% 30.21 in 10.0 mi West 24.2 mph 33.4 mph N/A   Clear
1:35 PM 28.4 °F 14.7 °F 8.6 °F 43% 30.21 in 10.0 mi West 21.9 mph 29.9 mph N/A   Clear
1:55 PM 28.4 °F 14.7 °F 8.6 °F 43% 30.20 in 10.0 mi WNW 21.9 mph 34.5 mph N/A   Clear
2:15 PM 28.4 °F 15.8 °F 8.6 °F 43% 30.21 in 10.0 mi WNW 18.4 mph 31.1 mph N/A   Clear
2:34 PM 30.2 °F 19.8 °F 8.6 °F 40% 30.21 in 10.0 mi West 13.8 mph 23.0 mph N/A   Clear
2:55 PM 30.2 °F 19.3 °F 8.6 °F 40% 30.21 in 10.0 mi West 15.0 mph 21.9 mph N/A   Clear
3:15 PM 32.0 °F 20.8 °F 6.8 °F 35% 30.21 in 10.0 mi West 17.3 mph 21.9 mph N/A   Clear
3:35 PM 32.0 °F 20.5 °F 6.8 °F 35% 30.20 in 10.0 mi WNW 18.4 mph 29.9 mph N/A   Clear
3:55 PM 32.0 °F 19.2 °F 5.0 °F 32% 30.20 in 10.0 mi WNW 23.0 mph 29.9 mph N/A   Clear
4:15 PM 32.0 °F 18.9 °F 1.4 °F 27% 30.19 in 10.0 mi WNW 24.2 mph 36.8 mph N/A   Clear
4:35 PM 32.0 °F 17.9 °F -2.2 °F 23% 30.18 in 10.0 mi WNW 28.8 mph 36.8 mph N/A   Scattered Clouds
4:55 PM 32.0 °F 17.9 °F -4.0 °F 21% 30.17 in 10.0 mi WNW 28.8 mph 40.3 mph N/A   Clear
5:15 PM 32.0 °F 18.1 °F -4.0 °F 21% 30.17 in 10.0 mi WNW 27.6 mph 38.0 mph N/A   Clear
5:35 PM 32.0 °F 17.9 °F -4.0 °F 21% 30.16 in 7.0 mi WNW 28.8 mph 42.6 mph N/A   Scattered Clouds
5:54 PM 32.0 °F 18.4 °F -2.2 °F 23% 30.18 in 10.0 mi WNW 26.5 mph 40.3 mph N/A   Mostly Cloudy
6:06 PM 32.0 °F 17.9 °F -0.4 °F 25% 30.17 in 10.0 mi WNW 28.8 mph 41.4 mph N/A   Overcast
6:34 PM 32.0 °F 18.6 °F 1.4 °F 27% 30.18 in 10.0 mi WNW 25.3 mph 38.0 mph N/A   Overcast
6:52 PM 32.0 °F 17.9 °F 1.4 °F 27% 30.19 in 10.0 mi NW 28.8 mph 39.1 mph N/A   Overcast
7:03 PM 32.0 °F 18.1 °F 1.4 °F 27% 30.20 in 10.0 mi WNW 27.6 mph 43.7 mph N/A   Mostly Cloudy
7:33 PM 32.0 °F 18.6 °F 1.4 °F 27% 30.20 in 10.0 mi NW 25.3 mph 35.7 mph N/A   Scattered Clouds
7:52 PM 32.0 °F 18.9 °F 3.2 °F 30% 30.20 in 10.0 mi WNW 24.2 mph 34.5 mph N/A   Scattered Clouds
8:35 PM 32.0 °F 19.5 °F 3.2 °F 30% 30.23 in 10.0 mi WNW 21.9 mph 31.1 mph N/A   Overcast
8:55 PM 32.0 °F 19.8 °F 3.2 °F 30% 30.23 in 10.0 mi WNW 20.7 mph 29.9 mph N/A   Mostly Cloudy
9:15 PM 32.0 °F 19.8 °F 5.0 °F 32% 30.24 in 10.0 mi West 20.7 mph 26.5 mph N/A   Scattered Clouds
9:35 PM 30.2 °F 17.1 °F 5.0 °F 34% 30.24 in 10.0 mi West 21.9 mph 31.1 mph N/A   Clear
9:55 PM 30.2 °F 17.4 °F 5.0 °F 34% 30.24 in 10.0 mi West 20.7 mph 29.9 mph N/A   Clear
10:15 PM 30.2 °F 17.8 °F 6.8 °F 37% 30.24 in 10.0 mi WNW 19.6 mph 24.2 mph N/A   Clear
10:35 PM 30.2 °F 18.1 °F 6.8 °F 37% 30.23 in 10.0 mi WNW 18.4 mph 28.8 mph N/A   Clear
10:55 PM 28.4 °F 15.4 °F 8.6 °F 43% 30.23 in 10.0 mi WNW 19.6 mph 25.3 mph N/A   Clear
11:15 PM 28.4 °F 14.7 °F 6.8 °F 40% 30.23 in 10.0 mi WNW 21.9 mph 28.8 mph N/A   Clear
11:35 PM 28.4 °F 15.4 °F 8.6 °F 43% 30.24 in 10.0 mi NW 19.6 mph 28.8 mph N/A   Clear
11:55 PM 28.4 °F 15.8 °F 8.6 °F 43% 30.25 in 10.0 mi NW 18.4 mph 29.9 mph N/A   Clear